TimePST,TemperatureF,Dew PointF,Humidity,Sea Level PressureIn,VisibilityMPH,Wind Direction,Wind SpeedMPH,Gust SpeedMPH,PrecipitationIn,Events,Conditions,WindDirDegrees,DateUTC
12:15 AM,42.8,41.0,93,30.40,2.5,SSE,4.6,-,N/A,,Overcast,150,2013-02-12 08:15:00
12:35 AM,42.8,41.0,93,30.40,3.0,SSE,4.6,-,N/A,,Overcast,150,2013-02-12 08:35:00
12:55 AM,42.8,39.2,87,30.40,8.0,SSE,4.6,-,N/A,,Overcast,160,2013-02-12 08:55:00
1:15 AM,42.8,39.2,87,30.40,7.0,SE,5.8,-,N/A,,Overcast,140,2013-02-12 09:15:00
1:35 AM,42.8,39.2,87,30.40,3.0,SE,6.9,-,0.01,,Overcast,130,2013-02-12 09:35:00
1:55 AM,42.8,39.2,87,30.40,7.0,SSE,5.8,-,0.01,,Overcast,150,2013-02-12 09:55:00
2:15 AM,42.8,41.0,93,30.40,4.0,SE,5.8,-,N/A,,Overcast,140,2013-02-12 10:15:00
2:35 AM,42.8,41.0,93,30.40,9.0,SE,6.9,-,N/A,,Overcast,140,2013-02-12 10:35:00
2:55 AM,42.8,39.2,87,30.40,10.0,SE,6.9,-,N/A,,Overcast,140,2013-02-12 10:55:00
3:15 AM,42.8,41.0,93,30.40,10.0,SE,5.8,-,N/A,,Overcast,130,2013-02-12 11:15:00
3:35 AM,42.8,39.2,87,30.39,10.0,SE,6.9,-,N/A,,Overcast,130,2013-02-12 11:35:00
3:55 AM,42.8,39.2,87,30.40,10.0,SE,5.8,-,N/A,,Overcast,130,2013-02-12 11:55:00
4:15 AM,42.8,41.0,93,30.39,10.0,SE,8.1,-,N/A,,Overcast,140,2013-02-12 12:15:00
4:35 AM,42.8,41.0,93,30.39,8.0,SSE,9.2,-,N/A,,Overcast,150,2013-02-12 12:35:00
4:55 AM,42.8,41.0,93,30.39,10.0,SSE,5.8,-,N/A,,Overcast,160,2013-02-12 12:55:00
5:15 AM,42.8,41.0,93,30.39,7.0,SE,6.9,-,N/A,,Overcast,140,2013-02-12 13:15:00
5:35 AM,42.8,41.0,93,30.40,5.0,SE,5.8,-,N/A,,Overcast,140,2013-02-12 13:35:00
5:55 AM,42.8,41.0,93,30.40,4.0,SE,8.1,-,N/A,,Overcast,130,2013-02-12 13:55:00
6:15 AM,42.8,41.0,93,30.40,7.0,SE,6.9,-,N/A,,Overcast,140,2013-02-12 14:15:00
6:35 AM,42.8,41.0,93,30.40,5.0,SE,6.9,-,N/A,,Overcast,140,2013-02-12 14:35:00
6:55 AM,44.6,41.0,87,30.41,5.0,SE,6.9,-,N/A,,Overcast,130,2013-02-12 14:55:00
7:15 AM,44.6,41.0,87,30.41,4.0,SE,6.9,-,N/A,,Overcast,140,2013-02-12 15:15:00
7:35 AM,44.6,41.0,87,30.41,5.0,SE,6.9,-,N/A,,Overcast,130,2013-02-12 15:35:00
7:55 AM,44.6,41.0,87,30.42,8.0,SSE,8.1,-,0.01,,Overcast,150,2013-02-12 15:55:00
8:15 AM,44.6,41.0,87,30.42,10.0,SE,8.1,-,N/A,,Overcast,130,2013-02-12 16:15:00
8:35 AM,44.6,41.0,87,30.43,10.0,SE,6.9,-,N/A,,Overcast,130,2013-02-12 16:35:00
8:55 AM,44.6,42.8,93,30.44,8.0,SSE,4.6,-,N/A,,Overcast,150,2013-02-12 16:55:00
9:15 AM,44.6,42.8,93,30.45,8.0,SE,4.6,-,N/A,,Overcast,140,2013-02-12 17:15:00
9:35 AM,44.6,42.8,93,30.45,10.0,SE,6.9,-,N/A,,Overcast,140,2013-02-12 17:35:00
9:55 AM,44.6,42.8,93,30.45,9.0,SE,8.1,-,N/A,,Overcast,140,2013-02-12 17:55:00
10:15 AM,46.4,42.8,87,30.46,5.0,SSE,8.1,-,N/A,,Overcast,150,2013-02-12 18:15:00
10:35 AM,46.4,42.8,87,30.46,10.0,SE,5.8,-,N/A,,Overcast,140,2013-02-12 18:35:00
10:55 AM,46.4,42.8,87,30.46,2.0,SSE,6.9,-,N/A,,Overcast,150,2013-02-12 18:55:00
11:15 AM,46.4,42.8,87,30.47,5.0,SE,6.9,-,N/A,,Overcast,140,2013-02-12 19:15:00
11:35 AM,46.4,42.8,87,30.47,5.0,SE,5.8,-,N/A,,Overcast,130,2013-02-12 19:35:00
11:55 AM,46.4,44.6,93,30.47,7.0,SE,5.8,-,N/A,,Overcast,130,2013-02-12 19:55:00
12:15 PM,46.4,44.6,93,30.47,9.0,SE,4.6,-,N/A,,Overcast,140,2013-02-12 20:15:00
12:35 PM,48.2,44.6,87,30.46,10.0,SE,5.8,-,N/A,,Overcast,140,2013-02-12 20:35:00
12:55 PM,48.2,44.6,87,30.45,10.0,SE,6.9,-,N/A,,Overcast,140,2013-02-12 20:55:00
1:15 PM,48.2,44.6,87,30.45,5.0,SSE,5.8,-,N/A,,Overcast,150,2013-02-12 21:15:00
1:35 PM,48.2,44.6,87,30.44,10.0,SE,4.6,-,N/A,,Overcast,140,2013-02-12 21:35:00
2:15 PM,48.2,44.6,87,30.43,2.5,SSE,6.9,-,N/A,,Overcast,150,2013-02-12 22:15:00
2:35 PM,48.2,44.6,87,30.44,7.0,Calm,Calm,-,N/A,,Overcast,0,2013-02-12 22:35:00
2:55 PM,48.2,44.6,87,30.44,1.8,Calm,Calm,-,N/A,,Overcast,0,2013-02-12 22:55:00
3:15 PM,48.2,44.6,87,30.44,5.0,Calm,Calm,-,0.01,,Overcast,0,2013-02-12 23:15:00
3:35 PM,48.2,44.6,87,30.44,4.0,SE,3.5,-,0.01,,Mostly Cloudy,130,2013-02-12 23:35:00
3:55 PM,48.2,44.6,87,30.44,5.0,Calm,Calm,-,0.01,,Overcast,0,2013-02-12 23:55:00
4:15 PM,48.2,46.4,93,30.42,10.0,SSE,4.6,-,N/A,,Overcast,160,2013-02-13 00:15:00
4:35 PM,50.0,46.4,87,30.42,10.0,South,5.8,-,N/A,,Overcast,170,2013-02-13 00:35:00
4:55 PM,48.2,46.4,93,30.42,8.0,SSE,5.8,-,N/A,,Overcast,150,2013-02-13 00:55:00
5:15 PM,48.2,46.4,93,30.42,10.0,SSE,6.9,-,N/A,,Overcast,150,2013-02-13 01:15:00
5:35 PM,48.2,44.6,87,30.42,10.0,SE,4.6,-,N/A,,Overcast,140,2013-02-13 01:35:00
5:55 PM,48.2,46.4,93,30.42,6.0,ESE,5.8,-,N/A,,Overcast,120,2013-02-13 01:55:00
6:15 PM,48.2,46.4,93,30.42,10.0,SSE,6.9,-,N/A,,Overcast,150,2013-02-13 02:15:00
6:35 PM,48.2,46.4,93,30.43,8.0,Calm,Calm,-,N/A,,Overcast,0,2013-02-13 02:35:00
6:55 PM,48.2,44.6,87,30.43,9.0,South,3.5,-,N/A,,Overcast,190,2013-02-13 02:55:00
7:15 PM,48.2,44.6,87,30.44,10.0,Calm,Calm,-,N/A,,Overcast,0,2013-02-13 03:15:00
7:35 PM,48.2,44.6,87,30.43,10.0,ESE,4.6,-,N/A,,Overcast,120,2013-02-13 03:35:00
7:55 PM,48.2,46.4,93,30.44,9.0,Calm,Calm,-,N/A,,Overcast,0,2013-02-13 03:55:00
8:15 PM,48.2,44.6,87,30.43,9.0,Calm,Calm,-,N/A,,Overcast,0,2013-02-13 04:15:00
8:35 PM,48.2,44.6,87,30.44,9.0,East,3.5,-,N/A,,Overcast,90,2013-02-13 04:35:00
8:55 PM,48.2,44.6,87,30.43,10.0,Calm,Calm,-,N/A,,Overcast,0,2013-02-13 04:55:00
9:15 PM,48.2,44.6,87,30.42,10.0,SE,4.6,-,N/A,,Overcast,140,2013-02-13 05:15:00
9:35 PM,48.2,44.6,87,30.42,10.0,SSE,4.6,-,N/A,,Overcast,150,2013-02-13 05:35:00
9:55 PM,46.4,44.6,93,30.42,10.0,SSE,3.5,-,N/A,,Overcast,150,2013-02-13 05:55:00
10:15 PM,48.2,44.6,87,30.42,10.0,SSE,4.6,-,N/A,,Overcast,150,2013-02-13 06:15:00
10:35 PM,48.2,44.6,87,30.42,10.0,SSE,3.5,-,N/A,,Overcast,150,2013-02-13 06:35:00
10:55 PM,46.4,44.6,93,30.43,10.0,Calm,Calm,-,N/A,,Overcast,0,2013-02-13 06:55:00
11:15 PM,48.2,42.8,82,30.42,10.0,SE,3.5,-,N/A,,Overcast,140,2013-02-13 07:15:00
11:35 PM,48.2,42.8,82,30.42,10.0,Calm,Calm,-,N/A,,Overcast,0,2013-02-13 07:35:00
11:55 PM,46.4,42.8,87,30.42,10.0,SE,3.5,-,N/A,,Overcast,140,2013-02-13 07:55:00